Provo, UT

6:04 AM MST on December 15, 2017 (GMT -0700)
Provo Municipal

Weather History for KPVU - November, 2012

Change the Weather History Date:

Monday, November 5, 2012

  Actual Average Record
Temperature  
Mean Temperature 46 °F -  
Max Temperature 59 °F 48 °F 71 °F (1999)
Min Temperature 33 °F 30 °F 19 °F (2002)
Degree Days  
Heating Degree Days 19    
Moisture  
Dew Point 33 °F    
Average Humidity 72    
Maximum Humidity 87    
Minimum Humidity 41    
Precipitation  
Precipitation 0.00 in - - ()
Sea Level Pressure  
Sea Level Pressure 30.42 in    
Wind  
Wind Speed 2 mph (SE)    
Max Wind Speed 8 mph    
Max Gust Speed -    
Visibility 12 miles    
Events      
Averages and records for this station are not official NWS values.
T = Trace of Precipitation, MM = Missing Value Source: NWS Daily Summary

Daily Weather History Graph

Daily Weather History Graph

Search for Another Location

Airport or City:

Trip Planner

Search our weather history database for the weather conditions in past years. The results will help you decide how hot, cold, wet, or windy it might be!

Date:

Astronomy

Nov. 05, 2012 Rise Set
Actual Time 7:01 AM MST 5:18 PM MST
Civil Twilight 6:33 AM MST 5:47 PM MST
Nautical Twilight 6:00 AM MST 6:19 PM MST
Astronomical Twilight 5:28 AM MST 6:51 PM MST
Moon 11:00 PM MST (11/5) 12:23 PM MST (11/5)
Length of Visible Light 11h 14m
Length of Day
10h 17m
Waning Gibbous, 62% of the Moon is Illuminated
Nov 5
Waning Gibbous
Nov 6
Last Quarter
Nov 13
New
Nov 20
First Quarter
Nov 28
Full

Hourly Weather History & Observations

Time (MST) Temp. Windchill Dew Point Humidity Pressure Visibility Wind Dir Wind Speed Gust Speed Precip Events Conditions
12:15 AM 39.2 °F - 32.0 °F 75% 30.44 in 10.0 mi Calm Calm - N/A   Clear
12:55 AM 39.2 °F - 30.2 °F 70% 30.45 in 10.0 mi Calm Calm - N/A   Clear
1:15 AM 39.2 °F - 30.2 °F 70% 30.44 in 10.0 mi Calm Calm - N/A   Clear
1:35 AM 37.4 °F - 32.0 °F 81% 30.44 in 10.0 mi Calm Calm - N/A   Clear
1:55 AM 37.4 °F 34.9 °F 30.2 °F 75% 30.44 in 10.0 mi SE 3.5 mph - N/A   Clear
2:15 AM 37.4 °F - 32.0 °F 81% 30.44 in 10.0 mi Calm Calm - N/A   Clear
2:35 AM 37.4 °F 34.9 °F 32.0 °F 81% 30.45 in 10.0 mi East 3.5 mph - N/A   Clear
2:55 AM 37.4 °F - 32.0 °F 81% 30.44 in 10.0 mi Calm Calm - N/A   Clear
3:15 AM 37.4 °F - 30.2 °F 75% 30.44 in 10.0 mi Calm Calm - N/A   Clear
3:55 AM 35.6 °F - 30.2 °F 81% 30.44 in 10.0 mi Calm Calm - N/A   Clear
4:15 AM 35.6 °F - 30.2 °F 81% 30.44 in 10.0 mi Calm Calm - N/A   Clear
4:35 AM 35.6 °F - 30.2 °F 81% 30.44 in 10.0 mi Calm Calm - N/A   Clear
4:55 AM 35.6 °F 29.2 °F 30.2 °F 81% 30.44 in 10.0 mi SSE 8.1 mph - N/A   Clear
5:15 AM 37.4 °F 32.1 °F 30.2 °F 75% 30.44 in 10.0 mi SE 6.9 mph - N/A   Clear
5:35 AM 35.6 °F 31.7 °F 30.2 °F 81% 30.44 in 10.0 mi ESE 4.6 mph - N/A   Clear
5:55 AM 35.6 °F 31.7 °F 30.2 °F 81% 30.44 in 10.0 mi East 4.6 mph - N/A   Clear
6:15 AM 33.8 °F 30.8 °F 28.4 °F 81% 30.44 in 10.0 mi East 3.5 mph - N/A   Clear
6:35 AM 35.6 °F 31.7 °F 30.2 °F 81% 30.44 in 10.0 mi SE 4.6 mph - N/A   Clear
6:50 AM 35.6 °F - 30.2 °F 81% 30.45 in 15.0 mi Calm Calm - N/A   Partly Cloudy
6:55 AM 35.6 °F 32.8 °F 30.2 °F 81% 30.45 in 10.0 mi SE 3.5 mph - N/A   Clear
7:47 AM 33.8 °F 30.8 °F 28.4 °F 81% 30.46 in 15.0 mi Variable 3.5 mph - N/A   Scattered Clouds
8:47 AM 42.8 °F - 30.2 °F 61% 30.47 in 15.0 mi Calm Calm - N/A   Scattered Clouds
9:50 AM 48.2 °F - 33.8 °F 58% 30.48 in 15.0 mi Calm Calm - N/A   Partly Cloudy
10:50 AM 51.8 °F - 35.6 °F 54% 30.48 in 15.0 mi Variable 4.6 mph - N/A   Scattered Clouds
11:53 AM 55.4 °F - 33.8 °F 44% 30.43 in 15.0 mi Variable 3.5 mph - N/A   Scattered Clouds
12:59 PM 55.4 °F - 33.8 °F 44% 30.40 in 15.0 mi Variable 4.6 mph - N/A   Scattered Clouds
1:52 PM 57.2 °F - 33.8 °F 41% 30.38 in 15.0 mi Variable 3.5 mph - N/A   Scattered Clouds
2:47 PM 59.0 °F - 37.4 °F 45% 30.37 in 15.0 mi Variable 6.9 mph - N/A   Scattered Clouds
3:55 PM 59.0 °F - 35.6 °F 42% 30.37 in 15.0 mi NW 4.6 mph - N/A   Mostly Cloudy
4:50 PM 57.2 °F - 50.0 °F 77% 30.37 in 15.0 mi Variable 4.6 mph - N/A   Scattered Clouds
6:50 PM 48.2 °F - 33.8 °F 58% 30.37 in 15.0 mi Calm Calm - N/A   Scattered Clouds
7:50 PM 46.4 °F - 35.6 °F 66% 30.38 in 15.0 mi Calm Calm - N/A   Scattered Clouds
8:50 PM 42.8 °F - 35.6 °F 76% 30.38 in 15.0 mi Calm Calm - N/A   Scattered Clouds
9:15 PM 42.8 °F 41.1 °F 37.4 °F 81% 30.39 in 10.0 mi SE 3.5 mph - N/A   Clear
9:35 PM 42.8 °F 40.1 °F 37.4 °F 81% 30.39 in 10.0 mi SSE 4.6 mph - N/A   Clear
9:55 PM 41.0 °F - 35.6 °F 81% 30.39 in 10.0 mi Calm Calm - N/A   Clear
10:15 PM 42.8 °F 41.1 °F 37.4 °F 81% 30.39 in 10.0 mi ESE 3.5 mph - N/A   Clear
10:35 PM 42.8 °F - 35.6 °F 76% 30.39 in 10.0 mi Calm Calm - N/A   Clear
11:15 PM 39.2 °F - 30.2 °F 70% 30.38 in 10.0 mi Calm Calm - N/A   Clear
11:55 PM 37.4 °F - 33.8 °F 87% 30.39 in 10.0 mi Calm Calm - N/A   Clear